Winfield, KS

10:42 PM CDT on May 22, 2017 (GMT -0500)
Strother

Weather History for KWLD - December, 2013

Change the Weather History Date:

Wednesday, December 18, 2013

  Actual Average Record
Temperature  
Mean Temperature 49 °F -  
Max Temperature 66 °F 42 °F 66 °F (2001)
Min Temperature 32 °F 23 °F -5 °F (2016)
Degree Days  
Heating Degree Days 16    
Moisture  
Dew Point 32 °F    
Average Humidity 53    
Maximum Humidity 76    
Minimum Humidity 30    
Precipitation  
Precipitation 0.00 in - - ()
Sea Level Pressure  
Sea Level Pressure 30.00 in    
Wind  
Wind Speed 11 mph (South)    
Max Wind Speed 29 mph    
Max Gust Speed 38 mph    
Visibility 10 miles    
Events      
Averages and records for this station are not official NWS values.
T = Trace of Precipitation, MM = Missing Value Source: NWS Daily Summary

Daily Weather History Graph

Daily Weather History Graph

Search for Another Location

Airport or City:

Trip Planner

Search our weather history database for the weather conditions in past years. The results will help you decide how hot, cold, wet, or windy it might be!

Date:

Astronomy

Dec. 18, 2013 Rise Set
Actual Time 7:36 AM CST 5:13 PM CST
Civil Twilight 7:07 AM CST 5:42 PM CST
Nautical Twilight 6:34 AM CST 6:15 PM CST
Astronomical Twilight 6:03 AM CST 6:46 PM CST
Moon 6:44 PM CST (12/18) 8:18 AM CST (12/18)
Length of Visible Light 10h 34m
Length of Day
9h 36m
Full, 98% of the Moon is Illuminated
Dec 18
Full
Dec 25
Last Quarter
Jan 1
New
Jan 7
First Quarter
Jan 15
Full

Hourly Weather History & Observations

Time (CST) Temp. Windchill Dew Point Humidity Pressure Visibility Wind Dir Wind Speed Gust Speed Precip Events Conditions
12:54 AM 36.0 °F 32.1 °F 25.0 °F 64% 30.24 in 10.0 mi SE 4.6 mph - N/A   Clear
1:54 AM 35.1 °F 31.0 °F 26.1 °F 70% 30.22 in 10.0 mi SE 4.6 mph - N/A   Clear
2:54 AM 35.1 °F 32.2 °F 26.1 °F 70% 30.20 in 10.0 mi SSE 3.5 mph - N/A   Clear
3:54 AM 32.0 °F 27.5 °F 24.1 °F 73% 30.19 in 10.0 mi South 4.6 mph - N/A   Clear
4:54 AM 32.0 °F 28.7 °F 25.0 °F 75% 30.17 in 10.0 mi South 3.5 mph - N/A   Clear
5:54 AM 36.0 °F 28.5 °F 28.0 °F 73% 30.14 in 10.0 mi South 10.4 mph - N/A   Clear
6:54 AM 35.1 °F 29.3 °F 28.0 °F 76% 30.14 in 10.0 mi South 6.9 mph - N/A   Clear
7:54 AM 37.9 °F 31.5 °F 28.9 °F 70% 30.12 in 10.0 mi South 9.2 mph - N/A   Clear
8:54 AM 43.0 °F 36.4 °F 30.9 °F 62% 30.11 in 10.0 mi South 12.7 mph - N/A   Clear
9:54 AM 50.0 °F - 33.1 °F 52% 30.10 in 10.0 mi South 13.8 mph 21.9 mph N/A   Clear
10:54 AM 55.0 °F - 34.0 °F 45% 30.07 in 10.0 mi SSW 18.4 mph 27.6 mph N/A   Clear
11:54 AM 61.0 °F - 36.0 °F 39% 30.02 in 10.0 mi SSW 20.7 mph 28.8 mph N/A   Clear
12:54 PM 66.0 °F - 36.0 °F 33% 29.96 in 10.0 mi SSW 24.2 mph 29.9 mph N/A   Clear
1:54 PM 66.9 °F - 35.1 °F 31% 29.91 in 10.0 mi SSW 23.0 mph 32.2 mph N/A   Clear
2:54 PM 66.9 °F - 34.0 °F 30% 29.88 in 10.0 mi SSW 28.8 mph 38.0 mph N/A   Clear
3:54 PM 66.0 °F - 34.0 °F 30% 29.85 in 10.0 mi SSW 23.0 mph 29.9 mph N/A   Clear
4:54 PM 63.0 °F - 34.0 °F 34% 29.85 in 10.0 mi South 15.0 mph 23.0 mph N/A   Clear
5:54 PM 60.1 °F - 33.1 °F 36% 29.85 in 10.0 mi South 12.7 mph - N/A   Clear
6:54 PM 57.9 °F - 34.0 °F 41% 29.84 in 10.0 mi South 11.5 mph - N/A   Clear
7:54 PM 57.0 °F - 37.0 °F 47% 29.83 in 10.0 mi South 18.4 mph - N/A   Clear
8:54 PM 57.0 °F - 37.0 °F 47% 29.84 in 10.0 mi South 18.4 mph - N/A   Clear
9:54 PM 55.0 °F - 37.9 °F 53% 29.83 in 10.0 mi South 19.6 mph - N/A   Clear
10:54 PM 55.0 °F - 39.0 °F 55% 29.82 in 10.0 mi South 20.7 mph 28.8 mph N/A   Clear
11:54 PM 54.0 °F - 39.9 °F 59% 29.81 in 10.0 mi South 17.3 mph - N/A   Clear